Temp
23 23 23 23 23 23 23 23 23 24 24 23 23 23 23 23 23 24 24 24 23 23 23 23 22 22 22 22 22 23 23 23 23 22 22 22 23 23 23 23 22 22 22 23 23 23 23 23 23 23 22 22 22 23 23 22 23 22 23 23 23 23 22 23 22 21 21 21 21 21 21 22 22 22 22 22 22 22 22 22 22 22 22 21 21
23 23 23 23 23 23 23 23 24 24 24 23 23 23 23 23 23 23 24 24 23 23 23 22 22 22 23 23 23 23 23 23 23 23 23 23 23 23 24 24 24 24 24 24 24 24 24 24 23 23 23 22 22 22 22 22 22 22 22 23 23 23 23 22 21 21 21 21 21 21 21 22 22 22 22 22 22 22 23 22 22 22 21 21 21
23 23 23 23 24 23 23 23 24 24 24 23 23 23 23 23 23 23 24 23 23 23 23 22 22 23 23 23 23 23 23 23 23 23 23 23 23 24 24 24 23 23 24 24 24 24 24 24 24 23 23 22 22 22 22 22 22 22 22 23 23 23 23 22 22 21 21 21 21 21 22 22 22 22 22 22 22 22 23 22 22 21 21 21 21
23 23 22 23 24 23 23 23 23 24 23 23 23 23 23 23 23 23 23 23 23 23 23 23 23 23 23 23 23 23 23 23 23 23 23 23 23 23 23 23 22 22 23 23 23 24 24 24 24 23 23 23 22 22 22 22 22 22 22 22 23 23 22 22 22 22 22 22 22 22 22 22 22 22 22 22 22 22 23 22 22 21 21 21 21
23 23 23 23 24 23 23 23 23 23 23 23 23 23 23 23 23 23 24 24 23 23 23 23 23 24 23 24 24 24 23 22 22 23 23 23 23 23 23 22 22 22 23 23 23 23 23 23 23 23 23 23 23 23 23 22 22 22 22 22 23 23 23 22 22 22 22 22 22 22 22 22 22 22 22 22 22 22 22 22 22 21 21 21 21
24 23 23 23 23 23 23 23 23 23 23 23 23 23 23 23 23 24 24 24 23 23 23 23 22 23 22 23 23 23 22 22 22 22 22 22 22 23 23 22 22 22 22 23 23 23 23 23 23 23 23 23 23 23 23 22 22 22 21 22 22 23 23 23 23 22 22 22 22 22 21 22 22 22 22 22 22 22 22 22 22 21 22 21 20
24 24 23 23 23 23 23 23 23 23 23 23 23 23 23 23 24 24 23 23 23 23 23 22 22 22 22 22 23 23 23 23 23 22 22 22 22 23 23 23 22 22 22 23 23 23 23 23 23 23 22 22 23 22 23 22 22 22 22 21 22 23 23 23 23 22 22 22 22 22 22 22 22 22 22 22 21 21 21 22 22 21 21 21 20
24 24 24 23 24 23 23 23 23 23 23 23 23 23 23 23 24 23 23 23 23 23 23 23 22 22 22 22 22 22 23 23 23 22 22 23 23 23 23 23 23 22 22 22 22 23 23 23 23 23 22 22 22 22 22 22 22 22 22 22 22 22 22 23 23 22 22 22 21 22 22 22 22 23 22 21 21 22 21 22 22 21 21 20 21
25 24 24 23 24 24 23 23 23 23 23 23 23 23 23 23 23 23 23 23 23 23 23 23 22 22 22 22 22 22 22 22 22 22 22 22 22 23 23 23 23 23 22 22 22 22 22 22 22 22 22 22 22 22 22 22 22 22 22 22 22 22 22 22 22 22 21 22 22 22 22 21 22 23 22 22 22 22 22 22 22 21 21 21 21
25 24 24 23 24 24 23 23 23 23 23 23 23 23 23 23 22 23 23 23 22 23 23 23 23 22 23 23 22 22 22 22 22 22 22 22 22 23 23 23 23 23 22 22 22 22 22 22 22 22 22 22 22 22 22 22 22 22 22 22 22 22 22 21 22 22 21 22 22 22 22 21 22 22 22 22 22 22 22 22 22 21 21 21 21
24 24 23 23 24 24 23 23 23 23 23 23 23 23 23 23 22 23 23 23 23 23 23 23 23 22 23 23 22 22 22 22 22 22 22 22 22 22 22 22 22 23 22 22 22 22 22 22 22 22 22 22 22 22 22 22 22 22 22 22 22 22 22 22 22 22 21 22 22 22 23 22 21 22 22 22 22 22 22 22 22 21 21 21 21
24 24 23 23 24 24 23 23 23 23 23 23 23 23 23 23 23 23 23 23 23 22 23 23 23 22 22 23 22 22 22 22 22 22 22 22 22 22 22 22 22 22 22 22 22 22 22 22 22 22 22 22 22 22 22 22 22 22 22 22 22 22 22 22 22 22 22 22 21 22 23 23 21 22 22 22 22 22 22 21 21 21 21 21 22
24 24 23 23 23 23 23 23 23 23 23 23 23 23 23 23 23 23 23 23 22 22 23 23 23 22 22 22 22 22 22 22 22 22 22 22 22 22 22 22 22 22 22 22 22 22 22 22 22 22 22 22 22 22 22 21 21 21 21 22 22 22 21 22 22 22 22 22 21 21 22 22 21 21 22 22 22 22 21 21 21 21 21 21 22
24 23 23 23 23 23 23 23 23 23 23 23 23 23 23 23 23 23 23 22 22 22 23 23 23 22 22 22 22 22 22 22 22 22 22 22 22 22 22 22 22 22 22 22 22 22 22 22 22 22 22 22 22 22 22 22 22 21 21 21 21 22 21 21 22 22 22 22 22 21 21 22 21 21 22 22 22 22 21 21 21 21 21 22 22
24 23 23 23 23 23 23 23 23 23 23 23 23 23 23 23 23 23 23 22 22 23 23 23 23 23 23 22 22 22 22 22 22 22 22 22 22 22 22 22 22 22 23 22 22 22 22 22 22 22 22 22 22 22 22 22 22 22 22 22 22 22 22 21 21 22 22 22 22 21 22 22 21 21 22 22 22 21 21 21 21 21 21 21 21
24 23 23 23 23 23 23 23 23 23 23 23 23 23 23 23 23 23 23 23 23 24 23 23 23 23 23 23 23 23 22 22 22 22 22 22 22 22 22 22 22 22 23 22 22 22 21 22 22 22 22 22 22 22 22 22 22 22 22 22 22 22 22 21 21 21 22 22 22 22 22 22 21 21 22 22 22 21 21 21 21 21 21 21 21
24 23 23 23 23 23 23 23 23 23 23 23 23 23 23 23 23 23 23 23 24 24 23 22 22 22 23 23 23 23 23 23 23 23 22 22 22 23 23 23 22 22 23 23 22 22 22 22 22 22 22 22 22 22 22 22 22 22 22 22 22 22 22 22 21 21 22 22 22 22 22 22 22 22 22 22 21 21 21 21 21 21 21 21 21
24 24 24 23 23 23 23 23 23 23 23 23 23 23 23 23 23 23 23 23 24 23 22 22 22 23 23 24 23 23 23 23 23 23 23 22 23 23 23 23 22 22 23 23 23 22 22 23 22 22 22 22 22 22 22 22 22 22 22 22 23 22 22 22 21 21 22 22 22 22 21 22 22 22 22 21 21 21 21 21 21 21 21 21 21
25 24 24 23 23 23 23 23 23 23 23 23 23 23 23 23 23 23 23 23 23 23 22 22 22 23 24 24 23 23 23 23 23 23 23 23 23 23 23 23 22 22 23 23 23 22 23 23 23 23 23 23 22 22 22 22 22 22 22 22 22 22 22 22 21 21 22 21 21 22 22 21 22 22 22 21 21 21 22 21 21 21 21 21 21
24 24 24 23 23 23 23 23 23 23 23 23 23 23 23 23 23 23 23 24 24 23 23 23 23 23 24 24 23 23 23 23 23 23 23 23 23 23 23 24 23 23 23 23 23 23 23 23 23 23 23 23 23 23 23 22 22 22 22 22 22 22 22 22 22 21 22 21 21 22 22 21 21 22 22 21 21 21 21 21 21 21 21 21 21
24 24 24 23 23 23 23 23 23 23 23 23 23 23 23 23 23 23 23 23 24 23 23 23 23 24 24 24 23 23 23 23 23 23 23 23 23 23 24 24 23 23 23 23 23 23 24 24 23 23 23 23 23 23 22 22 22 22 22 22 22 22 22 22 22 21 21 21 21 22 22 22 21 22 22 22 22 21 21 21 21 21 21 21 21
23 23 23 23 23 23 23 23 23 23 23 23 23 23 23 23 23 23 23 23 23 23 24 23 23 24 24 24 24 23 23 23 23 23 23 23 23 23 24 24 23 23 23 24 24 24 24 23 24 24 23 23 23 23 22 22 22 23 22 22 21 22 22 22 22 22 21 22 21 21 22 22 21 22 22 22 22 21 21 21 21 21 21 21 21
23 23 23 23 23 23 23 23 23 23 23 23 23 22 23 23 23 23 23 23 23 23 24 24 23 23 24 24 23 23 23 23 24 24 23 23 23 24 24 24 23 23 23 24 24 24 24 23 24 24 24 24 24 24 23 23 23 23 22 22 21 21 21 22 22 21 21 22 21 21 22 22 21 21 22 22 22 22 21 21 21 21 21 21 21
23 23 23 23 24 23 23 23 23 23 23 23 23 23 23 23 23 23 23 23 23 24 23 23 23 23 23 23 23 23 23 23 24 24 23 24 24 24 24 23 23 23 23 23 24 24 24 24 24 24 24 24 24 24 23 23 23 22 22 22 21 21 21 21 22 22 21 21 21 21 22 22 21 21 22 22 22 22 22 21 21 21 21 21 21
24 24 24 23 24 24 23 23 23 23 23 23 23 23 23 23 23 23 23 23 23 24 23 23 24 23 23 24 24 24 24 24 24 24 24 24 24 24 24 23 23 24 23 23 23 24 24 24 24 24 24 24 24 24 24 23 23 23 22 22 22 22 21 21 22 22 22 22 21 21 22 22 22 21 22 22 22 22 21 21 21 22 21 21 21
24 24 24 24 24 24 23 23 23 23 23 23 23 23 23 23 23 23 23 23 23 23 23 23 24 24 24 24 24 25 25 25 24 24 24 24 24 24 24 24 24 24 24 23 24 24 24 25 24 24 24 24 25 25 24 24 23 23 23 22 22 22 22 21 22 22 22 21 21 21 22 22 22 22 22 22 22 22 21 21 21 22 22 22 21
24 24 25 24 24 24 24 23 23 23 23 23 23 23 23 23 24 24 24 24 24 24 24 24 24 24 24 24 24 25 26 25 25 25 25 24 24 24 25 24 24 24 24 24 24 25 25 25 25 25 25 25 25 25 25 24 24 23 23 23 22 22 22 22 22 21 21 21 20 21 22 22 22 22 22 22 22 21 21 21 21 21 22 22 22
24 24 24 24 24 24 23 23 23 23 23 24 24 23 23 23 24 24 24 24 24 24 24 24 24 24 24 24 24 25 26 26 25 25 25 25 25 25 25 25 25 26 25 25 25 25 25 25 26 26 25 25 25 25 25 24 24 23 23 23 23 23 22 22 21 21 21 21 21 21 22 22 22 22 22 22 22 21 21 21 21 21 22 22 22
24 24 24 24 24 24 24 24 23 23 23 24 24 24 23 23 24 24 24 24 24 24 24 24 24 24 24 24 24 25 25 26 26 25 25 25 25 25 25 26 26 27 26 26 26 26 25 26 25 25 25 25 25 25 25 24 24 24 23 23 23 23 23 22 22 21 22 22 21 21 22 22 22 22 22 22 22 21 21 21 21 21 21 22 22
25 25 24 24 24 24 24 24 23 24 23 24 24 24 23 23 23 24 24 24 23 24 24 24 24 24 24 24 24 25 25 26 26 25 25 25 25 25 26 27 27 27 27 27 26 26 25 26 26 25 25 25 25 25 25 25 25 24 24 23 23 23 23 22 22 22 22 22 22 22 21 22 22 22 21 22 22 21 21 21 21 21 21 21 21
27 26 24 24 25 24 24 24 23 24 23 23 24 24 24 23 23 23 23 23 23 24 24 24 24 24 24 24 24 25 25 25 26 25 25 25 25 26 26 27 28 28 28 28 27 26 25 25 26 26 26 25 25 25 25 24 25 24 24 23 23 23 23 22 22 22 22 22 22 22 21 21 22 22 21 21 21 21 21 21 21 21 21 21 21
27 27 26 25 25 24 24 24 23 24 23 23 24 24 24 23 23 23 23 23 23 23 23 24 24 24 24 24 24 24 25 25 25 25 25 25 26 26 27 27 28 28 27 28 27 27 26 25 25 25 25 25 25 25 25 24 24 24 24 23 23 23 23 22 22 22 22 22 22 22 22 22 21 21 21 21 21 21 21 21 21 21 21 21 21
27 27 27 25 24 25 25 24 24 24 24 24 24 24 24 23 24 23 23 23 23 23 23 24 24 23 24 24 24 24 24 25 25 25 25 25 26 27 27 28 28 28 27 28 28 27 27 26 25 25 25 25 25 25 25 25 25 25 23 23 23 23 23 23 23 22 22 22 22 22 22 22 21 21 21 21 21 21 21 22 21 21 21 21 21
28 27 27 26 24 24 24 24 24 23 24 24 24 24 23 23 23 23 23 24 23 24 24 24 24 23 23 24 24 24 24 24 25 25 25 26 27 27 27 28 28 27 27 27 27 27 27 27 27 27 26 26 26 25 25 24 24 24 24 24 24 23 23 23 23 23 23 23 23 22 22 22 21 21 21 21 21 21 21 22 21 21 21 21 21
28 28 28 27 25 24 24 24 23 23 23 24 23 23 23 23 23 23 23 24 23 24 24 24 24 24 24 24 24 24 24 25 25 25 25 25 26 27 27 28 28 27 27 27 27 27 27 27 28 28 28 27 27 27 25 24 23 22 22 22 23 24 24 23 24 23 23 23 23 22 22 22 21 21 22 21 22 22 21 22 21 21 21 21 21
29 30 29 27 27 25 24 23 23 23 23 23 23 24 24 24 23 23 24 24 23 23 24 24 24 24 24 24 24 24 24 24 24 24 25 25 26 27 27 27 27 27 27 27 27 27 27 28 28 28 28 28 28 28 27 26 24 22 22 23 22 23 24 23 23 23 23 23 23 23 23 22 22 22 22 21 22 22 22 22 22 22 22 22 22
30 30 28 26 27 26 25 24 24 25 24 24 24 24 24 24 24 24 24 24 24 24 24 24 24 24 24 24 24 24 24 24 24 24 24 25 26 27 28 28 27 27 27 27 27 27 28 28 28 28 28 28 28 28 28 27 26 23 22 24 23 22 23 23 23 23 23 23 23 23 23 23 22 22 22 22 22 22 22 22 22 22 22 22 22
30 30 28 26 26 26 26 26 25 25 25 25 25 24 24 24 24 24 24 24 24 24 24 24 24 24 24 25 24 24 24 24 24 24 24 25 26 27 28 28 27 27 27 27 28 28 28 28 28 28 28 28 28 28 28 27 27 25 23 24 24 23 23 23 23 23 24 24 23 23 23 23 23 22 22 22 22 22 22 22 22 22 22 22 22
30 30 28 25 26 27 27 27 26 26 26 25 25 25 24 24 25 24 24 24 24 24 24 24 25 25 25 25 25 24 24 24 24 24 24 25 26 27 28 27 27 27 27 27 28 28 28 28 28 28 28 28 28 28 28 28 28 27 26 25 25 24 24 24 23 24 24 24 24 23 23 23 23 22 22 22 22 22 22 22 22 22 21 22 22
28 29 27 25 27 27 26 27 27 26 25 25 25 25 25 24 25 25 25 25 24 24 24 25 25 25 26 26 25 25 24 24 24 24 24 25 26 27 27 27 27 27 27 27 28 28 28 27 28 28 28 28 28 28 28 28 28 28 27 26 25 24 25 24 24 24 24 24 24 23 23 23 23 22 22 22 22 22 22 22 22 22 22 22 22
27 27 26 25 26 26 26 26 26 26 25 25 25 25 25 25 25 25 25 25 25 25 25 25 26 26 27 27 26 25 25 24 24 24 24 24 25 26 27 27 27 27 27 28 28 28 27 27 27 28 28 28 28 29 28 29 28 27 27 26 25 25 25 25 24 24 24 24 23 23 23 23 23 23 23 23 22 22 23 22 22 22 22 22 22
26 27 26 25 25 25 26 26 26 26 25 25 25 25 25 25 25 26 26 26 26 26 26 26 27 27 27 27 26 25 25 24 24 24 24 24 25 26 27 27 27 27 27 28 28 27 27 27 28 28 28 28 29 29 29 29 27 26 25 25 25 25 25 25 25 24 24 24 23 23 23 23 23 23 23 23 23 23 23 23 23 22 22 22 22
25 26 25 25 25 25 25 26 25 25 25 25 25 25 25 25 25 26 26 26 26 26 27 27 27 27 27 27 26 25 25 24 24 24 24 24 25 25 26 27 27 27 27 27 27 27 27 27 28 28 28 28 29 29 29 29 27 25 24 24 24 25 25 25 24 24 24 24 24 24 23 23 23 23 23 23 23 23 23 23 23 23 23 22 22
25 25 25 25 25 25 25 25 25 24 25 25 25 25 25 25 25 25 26 26 26 26 27 27 27 28 28 27 26 25 25 25 24 24 25 25 25 26 26 27 27 27 27 27 27 27 27 27 28 28 28 28 28 29 29 29 28 26 25 23 23 24 24 24 23 24 25 25 25 24 24 23 23 24 23 23 23 23 23 23 23 23 23 23 22
25 25 25 24 25 25 24 25 25 25 25 25 25 25 25 25 25 25 25 26 26 26 27 27 28 28 28 27 27 26 25 25 25 25 25 25 26 26 26 27 27 27 27 27 27 27 27 28 28 28 28 28 28 28 28 28 28 27 26 24 24 24 24 23 23 24 25 25 25 24 24 23 23 24 24 23 23 23 23 24 23 23 23 23 23
25 25 24 24 24 25 24 24 25 24 24 25 24 25 25 25 25 25 25 26 26 26 27 28 28 28 28 28 27 26 25 25 26 26 26 26 26 26 26 26 27 27 27 27 27 27 28 28 28 29 29 28 28 28 28 28 28 28 27 26 26 25 24 23 23 24 24 25 25 24 24 24 23 24 24 23 23 24 24 24 24 23 23 23 23
25 25 24 24 24 24 24 24 24 24 24 24 24 24 25 24 25 25 25 26 26 26 27 27 28 28 28 28 28 27 26 26 26 26 26 26 26 26 26 26 26 27 27 27 27 28 28 28 29 29 29 28 28 27 27 28 28 28 27 26 26 26 25 24 24 24 24 24 24 24 25 25 24 24 24 24 23 24 24 24 24 24 24 23 23
25 25 24 24 24 24 23 23 24 24 24 24 24 24 24 24 25 25 25 26 26 26 27 27 28 28 28 28 28 27 27 26 26 27 27 27 27 26 26 26 26 27 27 27 27 28 28 28 28 29 28 28 27 27 27 27 28 28 27 26 26 25 25 25 24 24 23 23 24 25 25 24 24 24 24 24 23 24 24 24 24 24 24 24 23
25 25 24 24 24 24 23 23 24 24 24 23 23 23 23 23 24 25 25 26 26 26 26 27 27 28 28 28 28 28 28 27 27 27 27 27 27 27 26 26 26 26 27 27 28 28 28 28 28 28 28 27 27 27 27 27 27 28 28 27 26 25 25 25 24 24 23 23 24 25 25 24 24 24 24 24 24 24 25 25 25 25 24 24 24
25 25 24 24 24 24 23 23 23 23 23 23 23 22 22 22 23 25 25 25 26 26 26 26 27 27 28 28 28 29 28 28 27 27 27 27 27 27 26 26 26 26 27 27 28 28 28 28 28 28 27 27 27 27 27 27 27 27 27 27 26 26 25 25 25 25 24 23 23 24 24 24 24 24 25 25 25 25 25 25 25 25 25 25 24
24 24 24 24 24 23 23 23 23 23 23 23 23 22 23 23 23 24 25 25 25 25 26 26 27 27 27 28 28 28 28 28 28 27 27 27 27 27 27 26 26 26 26 27 27 28 28 28 28 28 27 27 27 27 27 27 27 27 27 27 26 26 26 25 25 26 25 24 24 24 24 24 24 24 25 25 26 25 25 25 25 25 25 25 25
Height
788 788 791 792 794 794 796 796 797 798 799 800 800 801 801 803 804 804 805 806 807 809 810 811 812 813 814 814 816 817 818 819 820 822 822 824 824 826 826 828 829 830 830 830 830 829 829 829 830 830 831 831 832 832 833 833 833 833 833 833 833 833 834 835 835 836 836 837 838 839 840 840 841 841 841 842 842 842 843 843 843 843 844 845 846
787 789 791 793 794 795 797 797 799 799 800 801 801 802 803 804 805 806 806 808 809 810 811 812 813 814 815 815 817 817 818 819 820 821 822 824 824 825 826 827 828 829 829 829 830 829 830 829 830 830 831 831 832 833 833 834 834 834 834 833 833 833 834 835 836 836 837 837 838 838 840 841 841 842 842 843 843 844 844 844 844 844 845 846 847
787 790 791 793 795 795 797 798 799 800 802 802 803 804 804 806 806 807 807 809 810 811 812 813 814 815 816 817 818 818 819 820 821 822 823 824 825 826 827 828 829 829 830 830 830 830 830 830 831 831 832 832 832 833 833 834 834 835 834 833 833 833 834 835 835 836 837 837 838 838 839 840 841 842 843 843 843 844 845 844 844 845 846 846 847
787 789 791 793 795 796 798 799 800 801 803 803 804 805 806 807 807 808 809 810 811 812 813 813 815 815 817 817 818 819 820 821 822 823 824 825 826 827 828 829 830 831 831 831 832 832 832 832 832 832 832 832 833 833 833 834 835 836 835 835 834 835 835 835 835 836 837 837 838 838 839 840 841 842 843 843 843 844 845 844 845 846 846 847 848
788 789 791 793 795 797 798 800 801 802 804 804 805 806 807 808 809 810 810 811 812 813 813 815 816 817 818 818 819 820 821 822 823 824 825 826 827 828 829 831 831 832 832 833 833 833 834 834 834 834 834 833 834 834 834 835 836 837 836 836 836 836 836 836 836 836 837 838 839 839 839 840 840 841 842 843 843 844 844 845 846 847 847 847 849
787 789 791 794 796 798 799 801 802 803 804 806 807 808 809 809 810 811 811 812 813 814 815 816 817 818 819 819 820 820 821 822 823 824 826 827 828 829 830 831 832 833 833 834 834 835 835 835 835 835 835 835 835 835 836 836 837 838 838 838 837 837 836 837 836 836 837 838 839 839 840 841 841 841 842 843 844 845 845 845 846 848 848 848 849
787 790 792 794 796 798 800 801 802 804 805 806 808 809 809 810 811 812 812 813 813 815 816 818 819 820 821 821 821 821 821 822 824 825 826 828 828 830 830 831 833 833 834 834 835 835 835 836 836 836 836 836 836 836 836 837 838 838 839 839 838 838 837 837 838 838 838 838 839 840 840 841 841 842 843 844 844 845 846 846 847 849 849 849 850
788 791 793 795 797 798 800 802 803 805 806 807 808 810 810 811 812 813 813 813 815 816 818 820 821 822 823 823 823 823 822 823 824 825 827 828 829 830 830 831 832 833 834 834 835 835 835 836 836 836 836 836 836 836 837 837 838 839 839 839 839 839 838 838 838 839 839 840 840 840 841 842 843 843 844 844 845 846 847 848 848 850 851 850 851
790 792 794 796 797 799 801 802 804 805 807 808 809 810 811 812 813 814 814 815 816 818 820 821 822 823 824 825 825 825 825 825 825 826 827 828 829 830 831 831 832 833 834 834 835 835 835 836 836 837 837 837 837 837 837 838 838 838 839 839 839 839 839 839 839 839 839 840 841 842 842 843 844 844 845 845 846 847 848 849 849 851 852 852 852
790 792 795 796 798 800 802 804 805 806 808 808 810 811 812 814 814 815 815 816 818 819 820 821 822 823 824 826 826 826 826 826 826 828 829 829 830 830 831 831 832 833 833 834 835 835 835 836 836 837 837 837 837 837 837 838 838 839 839 839 839 840 840 841 841 841 841 841 841 843 844 844 845 846 846 847 846 847 849 850 851 851 853 853 853
791 794 795 797 799 801 802 805 806 807 808 809 811 812 814 814 815 815 816 817 819 820 821 822 823 824 825 826 827 827 827 827 828 828 830 830 831 831 832 832 832 833 833 835 835 835 835 836 836 837 838 838 838 838 838 839 839 839 839 839 840 840 841 842 843 843 843 843 842 843 844 846 847 848 847 847 847 848 850 851 852 852 853 854 854
791 794 795 798 800 802 803 805 807 808 809 811 812 813 815 815 816 816 818 819 820 821 822 822 823 824 825 826 827 828 828 828 829 830 830 831 831 832 832 833 833 833 834 835 835 836 836 836 837 837 838 838 839 839 839 839 840 840 840 840 840 841 841 842 843 843 845 845 844 843 843 846 847 848 848 847 847 849 850 851 852 853 853 854 854
791 794 796 798 800 803 804 806 807 808 810 811 813 814 815 815 817 818 819 821 821 822 822 823 823 824 825 826 827 828 829 829 830 831 831 831 832 832 832 833 833 834 834 835 836 836 836 836 837 838 838 839 839 840 840 840 841 841 841 841 841 842 842 843 843 843 844 846 846 845 846 848 849 849 848 848 848 850 850 851 852 853 853 854 855
791 794 796 799 801 803 804 806 807 809 810 812 813 814 815 816 818 819 821 821 822 822 822 823 823 825 826 827 828 829 830 830 831 831 832 832 832 832 832 833 833 834 834 835 836 836 836 836 837 838 838 839 839 840 840 841 841 842 842 842 842 843 843 843 842 843 844 845 846 847 848 848 849 850 850 848 849 850 850 851 852 853 854 854 855
791 793 796 799 801 803 805 807 807 809 810 812 813 814 816 818 819 820 821 822 822 822 823 824 824 826 826 827 828 829 830 831 831 832 832 832 832 832 832 833 833 834 834 835 835 836 836 836 837 838 839 839 840 840 840 841 842 842 843 843 843 843 843 843 842 842 843 843 845 846 846 845 847 850 849 848 849 850 850 851 851 853 854 855 855
792 793 796 799 801 803 805 807 808 809 810 812 814 815 817 818 820 821 822 822 822 823 823 824 825 827 827 828 828 829 830 831 831 832 832 832 832 832 832 833 833 834 834 834 835 835 836 837 838 838 839 840 840 841 841 842 841 842 842 842 843 843 843 844 843 842 842 843 844 845 844 844 846 848 848 848 849 849 850 851 851 852 853 854 855
793 795 798 799 802 803 805 807 808 809 811 813 814 816 818 819 821 821 822 822 822 823 824 825 826 827 828 828 829 829 830 831 831 831 832 832 831 831 832 832 833 833 833 834 834 835 836 836 837 838 838 839 840 841 841 841 841 841 841 841 842 843 843 844 844 843 843 843 843 843 843 844 846 848 847 848 849 849 850 851 851 852 853 854 855
795 797 799 800 802 803 806 807 808 810 812 813 815 817 818 819 820 821 822 822 823 824 825 826 827 828 828 829 829 829 830 831 831 831 831 831 831 831 831 832 832 833 833 833 834 834 835 835 836 837 837 839 839 840 840 840 840 840 840 841 841 842 843 843 844 844 843 843 843 843 843 844 846 848 848 848 849 849 850 850 851 852 853 854 855
796 797 798 800 802 804 805 807 809 810 812 813 816 817 818 819 820 821 822 823 823 824 825 827 828 829 829 829 830 830 831 831 831 832 831 831 831 831 831 831 832 832 832 832 833 834 834 834 835 835 836 837 838 838 839 839 839 840 840 840 840 841 842 842 842 843 843 842 843 843 843 844 846 847 847 848 848 849 849 850 851 852 853 853 854
795 797 798 800 801 804 805 807 809 810 812 813 815 816 818 819 820 821 822 823 824 825 826 827 828 829 829 830 830 830 831 832 832 832 831 831 831 830 830 830 831 831 831 831 832 832 832 833 834 834 835 835 836 837 837 838 838 839 839 839 840 840 841 841 842 843 843 843 843 843 844 845 845 846 847 847 848 848 849 850 851 851 852 853 854
794 796 798 800 801 803 804 806 808 810 811 812 815 816 817 819 820 821 823 824 824 826 826 827 829 829 830 830 830 831 831 832 832 832 832 831 831 830 830 830 830 831 831 830 830 831 831 832 833 833 834 835 835 835 836 836 837 837 838 838 839 839 840 841 842 842 843 843 843 843 844 844 844 845 846 847 847 848 848 849 851 851 852 853 854
793 795 797 799 801 802 803 805 807 809 811 812 814 816 817 818 820 821 823 824 825 826 827 828 829 829 830 830 830 831 831 832 832 832 832 831 831 830 829 829 830 831 830 829 829 830 830 831 831 832 833 833 834 834 835 835 836 836 837 838 838 838 839 840 841 841 842 842 842 843 843 843 843 844 845 846 847 847 848 849 850 851 852 852 853
792 794 796 798 800 801 802 804 806 808 810 812 813 815 817 818 820 821 822 824 825 826 827 828 828 829 830 830 830 831 831 832 831 832 831 831 830 829 829 829 830 830 829 828 828 829 829 830 830 831 831 832 832 833 833 834 835 835 836 837 837 837 837 839 840 841 840 840 841 843 843 842 842 843 844 845 846 847 848 849 850 851 852 852 853
793 794 795 798 799 801 803 804 806 808 810 812 813 815 816 817 819 821 822 823 824 825 827 828 828 829 830 830 830 831 831 831 831 831 831 831 829 829 829 829 829 829 829 828 828 828 828 829 829 830 830 831 831 831 832 833 833 834 835 836 837 837 837 838 839 840 839 839 841 843 842 842 842 842 843 844 845 846 847 848 849 850 851 852 852
792 794 796 797 799 801 802 804 806 808 810 811 812 814 815 816 818 820 821 822 823 824 826 827 828 829 829 830 830 831 831 831 831 831 830 830 829 829 828 828 828 829 828 827 828 828 828 828 828 829 829 830 830 830 831 831 832 833 834 835 836 835 836 837 838 839 838 838 841 841 841 841 841 842 842 843 845 846 847 847 849 850 851 852 852
791 793 795 796 798 800 801 803 806 808 810 811 811 813 814 815 817 819 821 821 823 824 825 827 828 829 829 830 830 831 831 830 830 830 830 829 829 829 828 828 828 828 828 827 828 828 828 827 828 828 828 829 829 829 829 830 831 831 832 834 835 835 835 836 836 838 838 838 839 839 839 839 840 841 842 842 844 845 846 847 848 849 850 851 852
790 792 794 796 798 799 801 802 805 807 809 810 811 812 813 815 817 819 820 821 822 823 825 826 827 828 829 829 830 830 830 830 830 829 829 829 829 828 828 828 827 827 827 827 828 828 828 827 826 826 827 828 828 828 828 828 829 830 831 832 833 833 834 834 835 837 837 837 837 837 837 838 839 840 841 842 843 844 845 846 847 848 849 850 851
790 792 793 795 797 798 799 801 803 806 808 809 810 811 812 813 816 817 818 819 821 822 823 824 826 827 828 828 829 830 830 830 829 828 828 828 828 828 827 827 826 826 826 827 827 827 828 826 826 825 826 827 827 827 827 827 828 828 830 831 831 831 832 833 834 836 836 835 836 836 836 837 838 839 840 841 842 843 844 845 846 847 848 849 850
791 792 792 793 796 797 798 800 802 804 807 808 809 810 811 812 814 815 816 818 819 820 821 823 825 826 827 827 828 828 828 829 828 828 828 828 828 827 827 827 826 826 826 827 826 827 827 826 827 827 827 827 827 827 827 827 827 827 829 829 830 830 830 831 832 833 833 834 835 835 835 835 836 837 839 840 841 842 843 844 845 846 847 848 849
789 791 792 792 795 797 797 799 801 803 806 807 807 809 810 812 813 814 816 817 819 819 820 822 824 825 826 827 827 827 827 828 828 828 828 828 827 827 827 827 826 826 826 827 827 827 827 827 827 827 826 826 827 827 827 827 826 826 828 829 829 829 830 830 831 832 832 833 834 834 835 835 835 836 837 838 840 841 842 843 844 845 846 847 848
785 788 791 791 792 795 797 798 800 802 804 805 806 808 810 811 812 813 815 817 818 819 819 821 823 824 825 826 826 826 826 826 827 828 828 827 827 826 826 826 826 826 826 827 827 828 827 827 827 826 826 826 827 827 827 828 828 827 827 829 829 829 829 830 830 830 831 831 832 833 833 834 834 835 836 837 838 839 841 842 843 844 845 846 847
782 785 787 789 790 792 794 797 798 800 802 804 805 807 809 810 811 812 814 816 817 817 819 821 822 823 824 824 824 825 825 825 826 827 827 827 826 826 825 826 825 826 826 826 827 828 828 827 827 826 826 827 827 827 827 827 828 830 830 831 831 829 829 829 829 829 830 830 830 832 832 833 834 834 835 836 837 838 839 840 841 842 844 845 846
779 781 784 786 788 789 791 794 797 799 800 802 804 805 807 808 810 811 814 815 816 817 818 819 820 821 822 822 823 823 824 825 826 826 826 826 826 825 825 825 825 825 826 826 826 828 828 828 827 826 826 827 827 827 828 827 828 830 833 834 831 830 829 828 829 829 829 830 830 830 832 832 833 834 834 835 836 836 837 839 840 841 842 843 844
776 779 782 783 787 788 790 794 797 799 799 801 803 804 806 807 809 811 812 813 815 816 816 817 819 819 820 821 821 822 823 823 824 825 825 825 825 825 824 824 825 824 824 825 826 826 827 827 827 827 827 826 826 826 827 829 830 833 837 836 832 829 829 829 829 829 829 829 829 829 831 832 832 833 833 834 834 835 836 837 838 839 840 841 842
775 777 779 782 785 789 791 793 796 799 800 801 803 804 805 806 808 809 810 812 813 814 815 815 817 818 819 820 820 821 821 822 823 824 824 825 824 824 824 824 824 824 824 824 825 825 825 826 826 826 826 825 826 825 826 828 832 837 840 838 834 830 828 828 828 828 829 828 828 828 829 830 831 832 832 833 833 833 834 835 837 838 839 840 841
772 774 777 781 784 787 791 793 796 798 799 801 802 803 804 805 806 807 808 810 811 812 813 814 815 816 818 818 818 818 820 821 822 823 823 824 823 823 823 823 823 823 823 823 824 824 824 824 824 825 825 825 825 824 826 827 830 837 839 836 835 832 829 829 828 827 828 828 828 827 828 829 830 831 832 832 832 832 833 834 835 836 837 838 839
771 773 777 781 783 786 790 792 794 796 796 799 801 802 803 804 805 806 807 808 809 810 811 813 814 815 816 815 815 817 818 820 820 821 822 823 822 822 822 822 822 822 823 823 823 823 823 823 823 824 824 824 824 824 824 826 829 834 835 833 833 832 830 829 828 827 827 827 828 827 827 828 829 831 831 832 832 832 832 833 834 835 836 837 838
772 773 777 782 783 785 787 788 791 793 794 796 799 801 802 803 804 805 806 807 808 809 809 811 812 813 814 813 814 815 817 817 819 820 820 821 821 821 821 821 821 822 822 822 822 822 822 823 823 823 823 823 823 823 823 825 828 829 830 830 830 830 829 828 828 827 827 827 827 827 827 828 829 830 831 831 832 832 832 832 832 833 834 835 836
773 775 778 781 782 783 785 786 789 792 794 796 798 800 801 803 803 804 804 805 806 806 808 809 810 811 811 811 812 813 814 815 816 818 819 820 820 820 820 820 820 821 821 821 821 821 821 822 822 822 823 823 822 822 823 824 825 826 827 828 828 829 828 827 826 826 826 826 826 826 826 827 828 829 831 831 831 831 831 831 831 832 833 834 835
775 777 780 782 782 784 786 786 788 792 794 796 798 799 801 802 803 803 802 803 804 804 805 807 808 809 809 809 810 811 812 813 814 816 817 818 818 818 819 819 819 820 820 820 820 820 820 821 821 822 822 822 822 822 822 823 823 823 825 827 827 828 827 826 825 824 824 824 825 825 826 827 828 829 830 831 831 831 831 831 830 831 832 832 833
778 779 781 783 784 785 786 787 788 791 793 795 797 798 800 801 801 802 802 802 803 803 804 805 806 806 807 807 807 810 810 811 813 814 815 816 817 817 817 818 818 818 819 819 819 819 819 820 820 821 821 821 821 821 821 821 821 822 824 825 826 826 827 826 826 825 824 824 825 826 827 827 828 829 830 831 831 831 830 830 830 830 831 831 832
781 782 782 783 784 785 786 787 788 789 791 794 796 797 798 799 800 800 801 802 803 803 803 804 805 805 806 806 806 808 809 810 811 812 813 814 815 815 816 816 817 817 817 817 818 818 818 819 820 820 820 820 820 820 820 819 820 821 823 824 825 825 826 826 826 826 825 825 826 827 828 829 828 829 830 830 830 830 830 829 829 829 829 830 831
782 782 783 783 783 785 785 787 788 789 790 793 795 796 797 798 799 799 800 800 801 802 802 802 803 803 804 804 805 807 808 809 810 810 811 812 813 814 814 815 815 815 816 816 816 817 817 818 818 819 819 819 819 819 819 818 819 820 822 825 827 827 828 827 826 825 825 825 826 827 828 829 829 828 829 830 830 829 829 828 828 829 829 829 830
781 781 780 781 781 783 784 785 787 788 789 792 794 796 797 797 798 799 799 799 799 800 801 801 801 801 802 803 804 805 806 807 808 808 809 810 811 812 812 813 813 814 814 815 815 816 816 816 817 817 817 818 819 818 818 818 818 819 821 825 827 829 832 829 826 825 825 826 826 826 826 827 828 827 828 829 829 829 828 827 827 828 828 829 829
779 779 778 778 779 781 782 782 784 786 787 789 793 796 797 797 797 797 797 798 798 798 799 799 799 799 800 801 802 803 805 806 806 807 808 808 809 810 811 811 812 812 813 813 814 814 815 815 815 816 817 817 818 818 818 817 817 817 819 822 826 830 832 828 827 827 825 825 826 825 824 825 825 824 826 827 828 828 827 827 827 827 828 828 828
778 778 779 778 780 781 781 782 784 786 787 787 790 793 795 796 796 796 796 796 796 796 796 796 796 797 798 799 800 801 802 804 804 805 806 807 808 808 809 810 810 811 811 812 812 813 813 814 814 815 815 815 816 817 817 817 817 816 817 818 821 824 825 825 827 828 825 825 825 824 823 822 823 822 823 826 827 827 827 826 826 826 827 827 827
776 776 778 778 779 781 781 783 784 786 787 787 788 790 792 794 795 795 795 795 794 794 795 795 795 795 796 797 798 799 801 802 803 804 804 805 806 807 807 808 809 809 810 811 811 812 812 812 813 813 814 814 814 816 817 817 816 816 816 816 817 818 819 821 824 826 827 826 824 822 820 819 820 821 822 824 826 826 825 825 826 826 826 826 827
773 774 775 776 777 779 780 782 784 785 786 787 788 788 789 791 792 793 793 793 793 793 794 794 794 794 795 795 796 798 799 800 801 802 803 804 804 805 806 806 807 808 809 809 810 811 811 811 812 812 812 813 814 815 816 816 816 815 815 816 817 817 818 819 820 822 826 827 824 821 820 820 821 821 821 822 824 825 824 825 825 825 825 825 825
770 771 772 774 776 777 779 781 783 784 784 786 787 787 789 791 790 791 791 791 792 792 792 792 792 793 793 794 795 796 797 798 799 800 801 802 803 804 804 805 806 806 807 808 808 809 810 810 810 811 812 812 813 814 814 815 815 815 815 815 816 817 817 818 818 819 821 825 826 822 821 822 822 822 821 822 823 823 823 824 824 824 824 824 824
769 770 771 772 774 776 778 780 781 781 782 784 785 785 788 790 790 789 788 789 789 790 791 791 790 791 792 793 793 794 795 796 797 799 799 800 801 802 803 804 805 805 806 806 807 808 808 809 809 810 811 812 812 813 813 814 814 814 814 814 815 816 817 817 818 819 819 822 824 822 821 821 821 821 820 821 821 822 822 822 822 823 823 822 823
771 771 772 773 774 775 777 779 780 781 781 782 783 783 784 787 788 787 786 786 786 788 789 788 788 789 790 790 791 792 793 794 795 796 797 798 799 800 801 802 803 804 805 805 806 806 806 807 807 808 809 810 811 811 812 812 813 813 814 814 814 815 815 816 817 818 818 820 822 821 819 820 820 819 819 819 819 820 820 820 820 821 821 821 821
Wind_Speed
19 21 23 21 22 21 21 21 21 22 23 22 22 22 22 22 21 21 20 19 18 18 17 16 16 16 17 18 18 19 19 19 18 17 17 16 16 14 13 13 13 13 13 13 13 13 13 12 12 12 12 12 13 14 14 14 14 13 11 12 13 13 13 13 13 13 14 15 16 17 19 18 17 16 15 15 15 15 15 14 15 15 16 16 15
21 23 23 23 23 22 22 21 22 22 22 21 21 21 21 21 20 20 19 19 18 17 16 15 15 15 16 17 17 17 17 17 17 16 16 15 14 13 12 13 13 13 13 12 11 12 12 12 11 11 11 12 13 13 14 14 14 13 11 11 12 12 11 12 12 12 13 14 15 16 17 17 17 16 16 15 14 13 12 13 13 14 16 15 15
24 23 22 24 24 23 22 21 22 22 21 19 19 20 20 20 19 18 18 17 17 16 16 14 14 14 15 16 16 16 16 16 16 16 15 16 16 16 16 16 16 15 15 14 12 11 12 11 10 10 9 10 12 12 13 13 14 13 11 10 10 11 10 10 10 11 12 12 13 15 16 16 17 16 15 14 12 10 10 12 10 12 15 15 14
25 23 22 25 25 23 22 22 22 21 20 18 18 19 19 19 18 17 16 16 16 15 15 14 14 14 15 16 16 16 16 17 17 18 18 19 19 18 17 15 14 14 14 14 13 13 12 11 10 9 8 9 9 10 11 12 13 13 11 9 9 10 10 10 10 10 11 12 12 14 15 15 15 15 14 13 11 10 11 13 9 11 15 15 15
25 24 23 25 25 24 23 21 20 20 19 18 18 18 18 18 16 15 15 16 17 16 16 16 15 15 17 17 18 17 17 17 17 19 18 19 18 17 15 14 13 12 12 12 12 12 12 11 10 9 7 7 7 8 10 11 12 12 11 10 9 10 10 9 10 10 10 11 12 12 13 12 13 13 12 12 10 11 13 12 10 12 14 15 16
25 26 25 25 24 23 23 20 18 19 19 19 19 18 18 17 15 16 18 20 20 19 18 16 15 15 16 17 18 19 18 16 16 17 16 16 16 15 14 13 12 11 11 10 10 11 11 10 9 8 7 6 6 6 7 9 10 11 11 9 9 10 9 8 9 9 8 9 9 10 10 9 11 11 10 10 10 12 12 10 11 12 13 15 17
25 27 25 25 24 22 22 20 19 20 20 20 19 19 17 16 16 18 20 20 19 18 17 16 15 15 16 16 18 19 18 17 17 17 15 15 14 14 13 12 11 10 9 9 9 10 10 9 8 7 7 6 5 5 6 7 8 8 9 9 8 8 6 6 8 8 7 7 5 8 9 8 10 11 10 10 12 12 11 11 13 14 15 17 18
24 25 23 24 24 23 23 22 20 21 21 21 20 19 17 17 17 19 19 20 19 19 18 16 16 16 15 15 16 17 17 17 17 17 16 15 14 13 13 12 11 9 8 8 8 9 9 9 8 6 6 5 4 5 5 6 6 6 8 8 8 7 5 3 5 6 5 5 3 5 8 8 10 11 11 11 13 13 12 13 15 16 16 18 18
24 23 22 23 24 24 24 23 21 21 21 20 19 18 18 18 18 18 20 21 20 19 17 16 15 14 14 13 12 14 14 15 15 14 14 13 13 12 12 12 10 9 8 7 7 7 8 8 7 6 6 5 4 4 4 5 6 6 6 6 8 9 6 3 2 2 3 2 3 5 6 9 10 11 11 11 13 14 13 14 16 17 15 17 17
23 23 22 23 26 25 24 23 21 21 20 20 19 19 18 18 18 18 20 20 18 18 17 16 15 14 14 12 11 12 12 13 13 12 12 11 12 12 12 11 10 9 8 7 6 6 6 7 7 6 6 6 5 4 3 4 6 5 4 4 5 7 7 5 2 0 1 0 2 4 5 7 8 10 12 12 13 14 13 13 15 15 15 16 16
24 22 22 24 27 25 24 22 20 21 20 19 19 19 18 17 17 18 19 18 18 17 17 16 15 14 14 12 11 11 12 12 12 12 11 10 11 11 10 10 9 8 7 7 6 6 5 6 6 5 5 6 6 5 4 4 6 6 4 3 4 5 4 3 2 1 1 3 3 4 6 7 8 9 11 13 13 13 13 12 13 15 16 15 15
24 23 22 25 27 25 24 21 20 20 19 19 19 19 18 17 17 18 18 18 18 17 16 16 15 14 14 12 11 11 11 11 12 12 11 11 10 10 9 8 8 8 7 6 6 5 5 5 5 5 4 5 5 5 6 5 5 6 3 2 3 3 2 2 2 2 4 7 6 6 6 8 8 9 11 13 13 13 13 12 13 15 15 15 15
25 23 23 27 26 25 24 22 21 20 20 19 19 19 18 17 17 17 17 18 17 16 16 15 15 14 12 11 11 11 11 11 11 11 10 10 10 9 8 7 7 7 6 5 5 5 4 4 5 4 3 4 4 5 5 5 4 4 3 2 3 3 2 3 4 4 6 9 11 10 9 11 9 10 13 13 13 13 12 13 14 14 14 14 15
26 25 27 28 25 24 23 22 21 20 20 19 19 19 18 18 17 16 17 17 16 16 15 14 14 13 12 11 10 10 10 10 10 10 10 9 8 8 7 7 6 6 5 5 5 4 4 4 4 3 3 3 3 3 3 3 3 3 3 3 3 4 3 4 5 5 6 9 13 14 14 14 12 14 16 14 14 13 13 13 14 14 15 14 15
26 27 29 27 24 24 22 22 21 20 19 19 19 18 18 18 17 16 16 17 16 15 14 13 13 12 11 11 11 10 9 9 9 9 8 7 7 6 6 5 5 5 4 4 4 3 3 4 3 2 2 2 2 2 2 1 2 3 3 3 3 4 4 3 3 4 6 8 11 14 13 13 15 17 16 15 14 14 14 13 13 14 15 14 14
25 26 28 26 24 23 21 21 20 19 19 18 18 18 18 18 17 16 16 16 15 15 13 12 12 11 11 11 11 10 9 9 8 8 7 7 6 5 4 4 4 3 3 3 2 2 3 2 2 1 1 1 2 2 1 1 1 2 2 3 3 4 4 3 3 4 5 7 9 12 11 10 13 17 15 14 14 15 13 13 13 14 15 15 14
24 26 26 25 25 22 21 20 19 19 19 19 18 18 18 18 17 16 16 15 14 14 13 12 11 11 11 10 11 10 9 8 7 7 6 6 4 3 3 2 3 2 1 1 0 1 1 1 1 1 0 1 1 2 2 1 1 1 1 3 3 2 3 3 2 3 5 7 8 11 11 11 13 15 15 14 14 15 14 13 13 13 14 14 14
24 26 26 25 25 22 21 20 20 19 19 19 18 17 18 17 16 16 15 14 13 12 12 12 11 11 11 9 9 9 8 7 6 5 4 4 3 2 1 1 2 1 0 0 1 1 1 3 2 1 1 0 1 1 2 2 1 1 2 3 3 3 3 4 4 4 7 7 8 11 12 14 14 15 15 15 15 15 14 13 13 13 13 13 13
23 24 25 26 25 23 22 21 20 20 19 19 18 17 17 17 16 15 14 13 12 12 11 11 10 9 9 8 7 7 7 6 5 4 3 2 1 1 1 2 1 1 2 2 2 2 3 4 2 1 1 1 1 1 2 2 1 1 2 3 4 4 3 5 6 5 7 8 9 10 13 15 15 15 15 15 15 15 14 14 14 13 13 13 13
22 23 23 25 25 24 23 22 21 20 19 18 18 18 17 17 16 15 14 13 12 11 11 10 9 8 7 7 6 6 6 5 4 4 3 2 2 3 3 4 3 3 4 4 3 3 4 4 3 1 1 2 2 2 3 2 1 1 2 4 4 4 4 6 6 6 7 8 9 9 12 15 15 15 16 16 16 15 14 14 14 14 13 13 13
22 22 22 24 22 22 22 22 22 20 19 18 18 18 18 17 16 15 14 13 12 11 11 9 9 8 6 6 6 6 6 5 5 4 5 4 5 5 5 6 5 4 5 5 4 4 5 5 4 2 1 2 3 4 4 3 2 2 3 4 4 4 5 6 6 6 7 7 8 9 11 14 14 15 17 16 16 15 14 15 14 14 13 13 13
19 22 23 22 20 20 21 21 21 20 19 18 17 18 18 18 16 16 15 14 13 12 11 9 9 7 6 6 6 6 6 6 6 6 7 6 6 7 6 6 6 6 6 5 4 3 4 5 4 2 1 3 4 5 4 3 3 4 4 4 3 5 6 6 6 6 7 7 8 10 11 13 14 14 16 17 16 15 14 15 14 14 14 14 14
16 21 22 20 19 18 19 19 19 19 19 18 18 18 18 18 17 17 16 15 14 13 11 10 9 8 8 7 7 7 7 8 6 7 7 6 7 8 7 7 6 6 6 5 4 2 3 4 3 1 2 3 4 5 5 4 4 4 4 4 4 5 6 7 7 6 6 7 9 11 11 12 13 13 15 17 16 16 15 15 14 15 15 14 14
16 19 20 19 19 18 18 18 18 19 19 17 18 18 20 19 18 18 17 16 16 14 12 11 11 10 10 9 8 8 9 10 8 7 8 8 9 9 8 8 7 6 5 4 4 3 5 5 4 3 4 4 5 6 7 6 4 3 4 4 5 5 6 8 8 8 8 8 10 12 11 11 13 13 14 16 16 16 15 15 15 15 15 15 15
17 18 18 19 19 18 20 19 18 21 20 19 19 18 21 21 18 18 17 17 17 15 14 13 12 11 11 10 9 9 10 11 10 8 9 8 8 10 9 9 9 6 5 4 5 6 6 6 5 4 4 4 5 7 7 7 5 5 5 4 5 5 6 7 8 9 9 9 11 12 11 11 13 14 15 15 16 16 15 15 15 16 16 16 16
18 18 18 20 20 19 22 21 18 23 23 21 21 19 21 20 17 18 17 17 17 15 15 14 13 12 11 11 10 11 11 12 11 11 10 9 9 11 11 11 10 7 6 7 6 7 7 7 6 5 4 3 4 6 7 7 6 7 7 7 6 6 7 6 6 8 9 10 12 13 11 12 14 15 16 16 16 16 16 15 15 16 17 17 17
19 18 19 20 20 20 23 21 19 23 24 22 21 21 22 19 16 18 18 16 16 15 14 14 14 13 13 13 12 12 11 11 12 12 12 10 10 12 10 9 9 7 7 8 6 5 5 6 7 5 2 2 4 7 7 8 8 8 8 9 8 8 8 7 6 6 8 10 10 11 11 12 14 15 16 17 17 17 17 16 16 15 17 18 17
20 18 18 20 21 21 23 22 20 22 23 23 21 20 22 19 17 19 20 19 17 17 16 16 16 15 16 14 13 13 12 11 11 12 12 10 11 11 9 7 8 8 7 9 7 4 3 4 6 4 3 4 6 6 7 9 9 9 8 9 9 9 8 8 7 6 7 8 8 9 10 11 13 15 16 17 18 18 18 17 17 16 17 18 18
22 20 20 21 20 22 27 26 24 23 21 24 23 20 22 21 19 20 20 20 20 20 18 16 16 17 18 15 15 14 12 12 12 12 12 11 11 10 8 8 8 7 5 7 7 4 3 3 6 3 3 5 5 5 7 9 10 10 9 9 8 7 7 8 7 7 8 8 7 8 8 10 12 14 16 17 18 18 19 19 18 17 17 18 18
22 23 23 23 21 24 29 27 24 24 21 23 26 22 22 21 20 20 19 20 21 21 18 16 16 18 19 17 17 15 13 12 9 11 12 10 10 9 8 8 7 6 5 5 5 5 3 3 5 2 1 4 4 5 7 9 10 9 9 9 7 6 6 6 6 6 7 8 7 6 7 9 11 14 15 17 18 18 19 19 19 18 17 18 18
23 24 25 25 25 26 29 26 24 26 22 23 27 25 23 22 20 19 18 18 18 19 19 18 18 18 18 18 16 14 14 13 8 9 12 11 9 8 7 8 7 6 5 5 5 4 4 3 3 4 3 5 5 6 7 8 8 6 7 8 7 7 6 4 3 3 5 7 5 4 7 8 10 12 15 17 18 18 19 20 20 19 18 18 18
23 23 24 26 27 26 28 27 25 27 25 24 27 24 23 22 21 19 17 17 17 18 19 19 19 18 16 16 16 16 15 14 11 11 12 11 9 8 8 8 7 5 5 5 4 3 5 8 3 4 5 5 7 7 7 9 10 6 5 7 6 6 5 3 2 3 4 4 2 4 7 8 10 12 14 16 18 19 20 20 21 20 19 19 19
23 23 24 28 30 27 27 28 26 27 26 26 25 23 21 22 23 22 20 20 20 21 21 20 18 17 15 15 18 18 15 14 13 12 11 9 7 8 9 8 7 6 6 5 3 2 3 6 5 7 8 8 9 8 4 9 11 6 4 4 7 6 4 2 3 4 3 3 4 5 7 8 9 12 13 15 18 20 21 21 21 21 21 20 20
24 24 25 28 33 31 28 28 27 27 27 27 26 24 23 23 26 25 22 23 23 24 24 23 21 20 17 15 16 18 15 14 14 12 11 9 8 9 9 8 7 7 6 4 3 3 3 4 5 7 8 10 11 10 8 4 8 6 2 2 6 5 3 2 3 5 3 4 5 6 7 8 9 10 12 14 16 19 22 23 22 22 22 22 21
21 21 21 22 28 33 32 30 30 28 27 27 26 25 23 22 24 24 23 23 23 23 24 24 25 24 19 16 15 16 15 14 13 11 10 10 9 9 9 8 7 7 7 5 4 4 4 6 5 4 4 8 9 10 7 3 10 13 7 6 3 3 3 0 3 5 4 4 3 4 7 9 11 10 11 12 15 17 20 23 23 23 22 22 22
18 20 20 19 22 28 30 31 32 29 26 28 25 23 23 21 21 22 21 20 21 21 21 22 23 22 20 18 16 15 14 13 13 12 10 10 11 11 11 9 7 7 7 6 5 5 5 6 4 3 5 4 5 7 5 3 7 17 14 9 10 7 4 1 2 4 4 3 2 3 4 8 11 11 11 12 13 16 18 20 23 24 22 22 23
12 14 17 17 17 21 22 25 28 25 24 25 23 21 21 21 20 20 19 18 20 20 19 20 21 20 19 19 18 16 16 15 14 13 11 10 11 11 10 10 8 7 7 7 6 5 5 5 3 3 4 6 8 6 2 6 1 16 16 9 12 12 6 5 5 2 3 2 1 2 1 4 9 10 11 12 12 14 16 18 21 23 23 23 23
7 9 11 10 12 17 18 19 21 21 22 22 21 21 20 20 19 18 19 19 19 19 18 19 19 20 19 20 21 19 17 16 14 14 13 12 12 11 9 9 9 9 8 7 6 4 5 4 5 4 3 5 7 9 7 7 4 9 13 10 10 9 7 6 5 2 3 3 1 2 1 2 6 8 10 11 12 12 14 16 19 22 22 23 23
5 6 7 8 10 15 15 16 19 19 20 21 21 21 19 18 19 17 18 18 17 18 19 19 19 19 19 20 21 19 16 15 15 14 14 13 12 10 9 8 9 9 8 7 6 5 5 4 6 5 4 6 6 8 8 6 4 6 10 10 9 7 8 7 3 1 4 3 2 1 1 2 4 7 10 10 11 12 13 14 17 21 22 23 24
4 3 7 10 9 16 13 12 18 18 18 20 19 18 18 18 18 17 16 16 16 17 18 18 19 19 17 17 19 17 15 16 15 15 15 13 11 10 10 9 8 8 7 7 7 5 5 4 5 4 4 6 7 7 7 6 3 7 9 9 8 5 6 6 3 2 5 4 3 4 4 4 4 7 11 12 11 12 13 13 15 19 21 22 24
4 3 3 7 6 14 13 10 15 17 17 18 17 17 18 17 17 17 17 18 18 18 17 17 17 16 15 16 18 16 15 16 16 15 15 14 12 11 11 11 10 9 9 8 6 4 3 4 5 5 5 6 6 6 6 6 3 7 7 5 6 2 2 3 2 1 3 3 3 5 6 7 5 7 11 12 12 14 14 14 15 17 18 19 22
3 3 2 2 5 9 12 11 13 16 16 16 17 17 17 17 16 16 17 18 19 18 18 17 16 15 14 15 17 16 16 17 16 16 15 14 14 12 11 11 11 10 10 9 6 4 5 5 6 6 6 6 6 6 6 5 3 6 5 3 5 3 2 2 3 2 2 3 2 4 7 8 7 7 10 12 13 14 14 15 16 17 18 18 19
5 5 4 4 6 7 10 12 14 16 16 15 16 16 16 17 16 16 15 15 16 18 17 17 16 16 16 15 15 15 17 17 16 16 14 14 14 13 11 11 12 11 10 9 8 7 7 7 6 7 6 5 6 5 5 6 1 7 5 2 2 1 2 2 5 4 3 3 4 4 6 8 8 7 9 12 14 14 13 14 15 16 17 18 18
8 9 8 9 11 10 11 14 14 15 16 15 16 14 15 16 15 14 14 13 14 15 16 16 17 17 17 17 16 16 17 16 16 16 14 14 15 14 12 12 13 13 11 11 10 9 9 8 8 7 5 4 7 6 5 7 1 5 4 2 1 0 1 1 4 6 4 3 5 5 5 8 9 7 8 12 13 14 14 14 15 16 17 18 19
11 12 13 13 13 13 14 16 16 15 16 16 15 15 15 15 15 13 12 13 14 15 15 16 16 16 16 17 17 17 18 17 16 16 15 15 15 15 14 13 13 13 13 13 12 11 10 10 9 6 5 5 7 6 5 6 2 3 2 3 2 1 2 1 2 3 3 4 5 5 5 6 8 6 9 12 12 14 15 14 15 16 16 17 19
10 12 16 15 12 12 15 18 17 15 15 16 16 17 17 15 16 14 12 14 14 15 16 16 16 16 15 16 17 17 18 17 16 16 16 16 16 17 16 14 13 13 14 13 12 12 10 9 8 7 7 7 5 3 5 5 4 2 2 3 3 3 4 3 2 1 2 4 4 5 6 5 7 6 9 12 12 14 15 14 15 16 16 17 17
13 15 16 16 13 13 14 17 18 17 17 18 18 18 17 16 17 15 13 14 14 14 15 15 15 16 16 16 16 17 18 17 17 17 17 17 17 17 17 17 15 14 14 14 13 12 10 9 9 8 7 4 2 2 4 5 5 3 2 3 2 3 3 3 3 1 1 1 2 5 8 7 6 7 8 11 14 15 13 12 14 14 15 16 16
14 15 16 17 18 16 14 17 20 20 20 19 18 19 19 18 18 16 15 15 14 14 15 15 14 14 15 16 15 16 18 18 18 18 18 17 17 17 17 18 17 15 14 14 14 12 11 10 9 8 7 4 2 4 6 5 6 5 3 3 4 4 3 3 4 3 2 1 2 3 6 7 8 9 8 9 13 15 12 11 12 13 14 15 15
13 15 17 17 19 19 17 18 20 21 21 20 18 19 20 18 18 18 16 15 15 13 14 15 14 12 14 16 16 17 19 20 18 18 18 17 17 17 17 18 17 17 15 14 14 13 12 12 10 8 7 7 7 7 8 7 7 6 3 3 3 5 5 5 6 6 4 1 2 1 2 4 7 10 11 11 13 14 12 11 12 13 13 14 14
11 14 15 14 17 21 20 19 20 20 21 20 19 19 20 19 18 18 17 15 14 13 13 15 15 14 14 15 16 16 16 19 18 18 18 18 18 18 17 17 17 17 16 15 15 14 14 13 11 9 8 9 9 9 9 8 8 7 4 3 3 3 5 4 6 6 4 3 3 3 4 3 5 8 10 12 13 13 12 11 12 12 13 14 14
6 7 10 11 13 17 18 19 19 20 20 19 19 21 21 21 19 19 20 18 14 14 15 16 16 15 14 14 15 16 14 15 17 17 18 18 18 18 18 18 17 17 17 16 16 15 14 13 11 11 11 12 11 10 9 8 7 7 5 5 5 5 6 5 4 6 4 3 3 4 4 4 6 8 9 9 11 12 12 11 11 12 12 13 13
Wind_Direction
136 141 141 141 137 134 131 129 130 131 129 122 117 115 113 113 112 112 111 110 109 107 104 99 96 95 96 96 98 99 97 97 97 95 94 95 96 95 93 93 94 95 95 93 92 93 89 84 80 76 73 73 76 79 82 83 83 79 72 76 84 88 93 98 96 94 100 106 110 110 110 110 108 108 109 110 108 105 106 111 112 114 119 118 115
138 141 141 141 139 135 133 133 133 135 132 123 119 116 114 115 115 115 115 115 115 115 112 105 101 100 100 100 102 102 100 99 99 98 98 96 95 95 90 87 88 88 88 90 95 96 92 83 77 72 69 70 74 77 80 82 81 80 75 73 80 82 87 93 94 94 95 102 108 108 109 110 108 111 114 112 110 109 113 116 115 116 121 122 121
135 137 139 141 140 137 135 135 136 137 134 127 122 119 117 117 117 118 118 120 122 123 119 110 108 109 107 107 109 109 106 105 105 103 102 99 96 94 90 87 87 87 86 89 96 94 92 89 83 78 73 71 72 76 79 81 79 78 77 75 77 79 80 81 88 94 96 97 102 106 106 109 110 114 115 113 110 109 119 121 119 120 122 123 124
133 135 138 142 141 140 139 140 137 137 137 132 126 122 121 121 121 120 122 126 127 126 124 120 119 119 117 115 114 114 111 107 104 102 100 97 95 93 90 89 88 87 85 87 91 91 92 93 94 89 82 77 75 78 79 82 81 78 76 76 78 81 81 79 85 91 96 98 101 105 104 107 111 114 116 112 105 107 124 126 123 124 123 123 122
134 137 140 143 143 143 143 143 139 138 137 134 131 127 127 125 122 121 122 123 123 123 124 122 120 120 117 113 110 110 107 104 101 99 98 97 97 97 96 95 94 92 90 90 92 94 94 94 97 99 95 89 87 84 84 85 85 84 80 79 79 82 87 92 101 101 100 98 101 104 100 104 108 111 114 110 103 109 127 132 125 123 124 123 122
138 141 141 143 146 146 144 144 142 140 138 136 134 132 132 127 123 119 116 113 114 116 117 115 115 116 114 112 110 108 106 106 105 103 102 102 102 103 104 100 99 98 96 95 97 98 97 97 99 106 107 102 102 95 92 92 89 89 86 84 79 79 89 104 112 107 101 94 98 105 105 113 111 111 112 111 110 110 121 130 125 124 126 123 123
138 141 141 144 148 147 144 143 143 141 138 137 136 136 132 126 123 118 115 113 113 114 113 113 116 117 115 115 113 112 112 112 111 111 111 110 110 109 108 106 103 100 98 98 99 101 99 100 104 112 116 115 113 103 101 97 91 91 93 91 82 78 80 104 112 100 88 81 96 113 113 121 118 117 116 116 118 115 121 128 127 125 123 122 122
136 140 139 145 150 148 143 142 143 141 139 138 138 136 130 125 124 121 119 115 114 114 114 116 117 116 114 114 114 115 115 113 112 114 117 117 116 115 112 109 108 105 100 99 99 99 99 100 102 110 118 117 110 105 108 104 96 92 97 101 102 96 76 81 93 89 79 66 114 135 120 131 135 128 122 123 126 126 127 128 127 123 122 122 122
138 140 138 146 152 148 143 142 143 141 140 140 138 135 131 128 126 124 120 117 118 118 117 120 121 119 115 115 115 115 114 112 111 114 117 118 119 118 115 113 114 112 104 100 96 92 93 95 97 103 110 110 101 95 96 100 99 96 102 108 113 115 115 110 66 57 53 54 159 166 142 139 144 135 131 133 134 135 131 129 128 128 131 129 126
138 140 140 148 151 148 144 143 143 141 140 140 138 137 135 132 130 126 122 121 125 126 126 128 129 126 121 119 120 119 117 115 115 118 119 120 122 119 117 117 118 115 108 100 94 91 89 88 93 98 105 113 114 108 99 96 95 96 101 105 111 124 135 138 150 269 354 226 162 177 167 141 147 148 145 144 140 139 138 136 135 137 141 136 135
137 139 140 148 151 147 144 143 143 142 141 140 140 140 138 135 133 129 128 130 131 133 134 134 133 129 124 123 126 126 123 121 120 120 120 120 119 118 118 119 117 113 108 102 95 94 89 85 90 94 99 108 116 124 123 107 99 95 90 103 115 130 149 160 170 189 176 182 168 186 191 165 163 170 160 149 148 149 148 149 147 146 147 148 148
140 138 140 149 151 148 146 145 145 143 143 143 142 142 139 134 133 132 133 135 137 138 139 138 135 130 127 127 132 131 125 123 121 120 122 123 121 119 118 118 117 113 107 104 98 94 91 87 91 96 93 95 106 116 118 111 103 100 93 104 110 126 169 207 190 171 162 164 174 190 204 192 179 183 172 155 158 159 156 158 155 151 150 159 159
141 140 146 150 151 151 148 147 148 147 146 145 145 143 139 135 135 137 138 139 141 143 143 140 135 132 130 130 132 131 126 125 123 125 127 126 124 123 123 122 118 113 108 106 100 99 101 96 97 98 89 87 94 99 108 115 113 111 114 124 131 148 179 210 207 192 175 166 173 180 184 192 195 191 179 165 165 163 162 165 158 154 151 158 161
142 144 151 151 151 153 151 150 150 149 149 148 147 144 141 141 141 144 145 144 145 145 142 136 132 132 132 131 129 128 129 127 125 126 127 128 129 129 129 126 118 112 107 106 102 104 111 109 108 104 96 90 91 96 104 121 134 135 141 158 165 170 169 200 219 217 200 177 173 178 174 176 190 192 180 170 167 165 169 168 160 158 154 155 158
144 146 151 152 152 154 153 154 153 151 152 150 149 146 145 147 148 150 150 148 146 143 138 133 131 131 134 132 127 129 130 128 127 128 132 133 133 134 132 127 120 113 105 104 106 110 121 124 122 122 119 108 114 116 122 149 157 162 164 177 180 179 171 176 210 219 209 179 172 182 178 172 183 188 179 169 166 169 173 169 163 162 158 156 160
146 148 152 154 154 155 156 155 155 153 152 152 151 151 152 152 153 154 153 150 146 142 140 137 136 135 135 131 127 128 130 134 136 138 141 139 138 142 141 134 125 115 106 105 108 128 136 133 126 142 137 118 146 147 144 166 162 168 170 187 190 182 177 163 193 219 215 190 179 180 176 174 183 186 179 172 169 170 172 167 165 165 162 160 161
146 149 152 154 155 156 158 158 156 155 155 156 155 156 157 157 156 155 155 152 148 145 144 143 144 143 135 128 128 127 128 133 138 140 141 142 147 151 148 140 135 124 106 98 83 197 165 353 337 328 43 104 141 139 138 163 165 181 201 212 211 196 178 170 201 226 213 201 189 182 177 175 184 192 183 175 173 171 171 167 167 168 167 164 163
146 150 152 154 157 158 159 160 158 158 158 158 159 161 160 160 160 158 158 157 154 150 150 151 149 145 134 128 133 132 131 134 140 143 144 148 149 157 178 164 158 182 342 335 311 247 302 331 325 298 308 74 158 165 171 189 173 194 234 230 224 219 191 185 225 219 194 191 194 193 189 179 181 195 186 177 175 172 172 168 169 171 170 169 167
146 149 153 154 157 159 159 160 160 161 161 161 162 163 163 163 163 162 162 161 160 158 159 159 152 148 139 138 144 137 136 142 154 157 164 170 175 206 257 287 223 244 283 301 304 280 298 316 318 286 297 305 264 250 222 215 200 213 230 227 219 218 203 202 227 224 190 186 196 195 192 187 182 191 188 179 177 174 174 171 172 173 170 171 171
148 148 152 155 158 158 160 162 162 164 164 164 165 165 167 167 167 167 167 166 168 169 167 162 158 157 149 150 151 147 150 155 177 186 199 214 235 252 277 293 266 256 285 296 298 298 306 314 327 321 308 306 289 294 284 264 252 244 239 225 211 209 203 201 217 225 203 193 205 199 192 192 183 187 190 182 181 179 177 174 175 176 172 172 173
149 151 154 157 159 159 161 164 164 167 165 165 167 167 169 170 172 171 172 173 176 180 175 167 167 165 162 163 161 170 178 178 194 207 222 234 248 265 287 298 281 265 283 292 295 309 316 322 329 328 318 300 299 304 281 256 276 284 261 237 211 200 203 201 209 224 215 199 202 195 192 194 182 184 191 186 184 183 182 179 178 179 176 174 174
151 154 158 160 161 162 163 166 167 168 166 168 169 169 173 173 176 176 176 180 183 188 183 176 173 174 184 184 176 187 202 205 210 215 225 239 252 268 293 304 290 271 273 283 298 322 326 329 330 325 311 296 303 306 281 263 297 300 277 254 225 200 205 209 208 216 212 198 196 194 193 191 183 185 191 190 188 187 188 185 182 182 180 177 175
159 157 160 164 165 164 165 167 169 170 166 170 172 170 175 176 178 179 181 185 188 193 188 184 182 189 206 202 195 199 211 225 229 222 225 243 259 272 291 297 295 279 261 265 284 314 316 320 336 328 313 318 315 307 293 292 303 298 284 269 246 221 215 218 214 210 202 197 201 200 198 191 185 190 192 191 193 192 192 190 186 186 184 181 177
167 165 164 167 170 167 168 169 169 171 167 172 176 174 178 179 180 180 183 189 193 196 193 193 193 197 213 213 211 210 215 228 237 231 229 246 263 271 279 279 282 267 241 250 265 288 305 306 323 315 312 327 312 302 299 299 305 295 287 271 259 249 236 229 220 212 203 199 205 203 200 197 190 192 194 192 194 194 193 193 190 190 189 185 181
169 171 172 173 174 171 170 171 172 174 171 173 174 178 182 180 182 183 185 193 195 198 197 202 205 204 213 219 221 222 223 229 237 237 235 250 258 256 263 268 270 260 242 240 244 273 293 298 308 300 306 322 301 297 302 303 300 292 292 272 256 263 257 246 230 220 211 200 206 209 207 206 198 194 196 194 195 194 193 193 193 195 194 190 187
169 174 178 178 177 175 174 173 176 178 176 175 171 177 185 181 184 188 189 195 197 200 201 207 215 214 217 222 227 230 227 230 241 242 238 243 245 249 257 260 258 252 241 234 238 262 276 298 307 291 303 335 309 297 302 302 291 292 300 289 266 256 258 257 249 233 222 207 204 215 217 211 205 198 198 199 198 197 195 195 194 198 199 196 192
172 179 178 179 179 176 177 175 176 180 181 181 174 176 184 184 188 192 192 195 197 202 206 210 217 219 219 220 227 234 230 230 241 242 236 233 244 258 263 256 250 243 232 227 238 256 261 308 318 301 312 334 308 300 300 296 290 298 301 294 281 260 251 249 255 244 230 220 208 220 222 208 207 204 202 204 202 201 200 199 197 197 200 199 197
173 183 179 179 180 178 180 180 178 179 183 186 183 180 184 188 194 193 192 194 196 203 207 211 215 218 220 218 223 238 241 233 233 235 230 229 244 254 257 254 246 245 229 216 230 242 236 320 328 314 299 282 290 299 301 301 298 300 297 297 292 273 259 248 248 242 234 232 216 223 223 207 207 207 207 207 205 203 203 202 200 198 199 199 201
175 179 186 184 178 182 187 186 186 183 183 190 190 187 187 191 200 198 194 195 199 206 208 213 219 219 219 217 221 232 241 238 237 239 234 234 240 237 241 247 239 237 215 208 222 211 193 311 309 276 256 275 285 289 292 309 313 302 294 298 288 267 264 256 250 241 235 240 228 220 222 214 210 209 209 210 206 204 204 203 202 201 200 199 202
177 172 185 193 182 183 191 189 189 185 181 191 192 190 192 195 204 202 199 200 204 209 207 212 221 219 215 217 223 222 229 244 249 245 243 239 235 232 238 238 229 221 210 208 202 199 209 311 308 256 235 294 287 282 290 306 317 303 285 291 283 259 263 263 253 243 231 231 224 215 225 224 215 210 209 210 207 204 205 205 204 202 201 202 203
176 171 177 189 188 186 191 189 191 190 182 190 194 193 194 198 206 205 200 201 206 210 209 215 220 219 216 218 222 218 225 244 245 237 249 249 236 236 239 232 223 209 213 214 189 198 192 179 307 308 289 286 265 274 288 283 288 293 285 289 284 262 262 270 247 232 222 216 209 213 232 230 220 216 209 206 206 205 206 206 205 203 203 204 203
174 175 170 176 188 192 191 186 190 191 184 191 197 197 194 196 205 207 203 200 202 207 211 218 221 223 223 217 217 219 224 237 244 245 251 248 234 233 230 227 226 203 209 218 189 162 164 172 221 265 238 243 245 253 274 278 266 263 307 301 284 271 273 285 249 245 240 219 208 212 228 231 217 214 211 206 205 206 208 206 205 204 204 206 206
176 179 171 169 178 186 189 186 187 187 184 189 197 200 198 199 207 209 207 202 203 207 211 216 218 222 226 220 216 217 221 229 242 249 248 241 229 231 225 213 215 208 211 223 207 176 179 188 208 220 212 221 235 220 226 303 288 274 347 310 274 268 257 262 239 257 273 258 263 240 229 226 214 212 213 209 207 208 209 207 206 206 206 207 208
177 182 176 172 173 178 185 183 183 186 187 188 191 195 195 197 202 206 210 207 207 211 213 216 217 218 221 220 213 213 222 226 231 240 240 239 232 230 228 210 205 213 218 225 241 243 234 239 231 225 212 214 230 211 192 261 254 236 359 292 289 289 219 203 253 262 280 274 274 258 233 215 209 218 220 214 210 209 209 208 207 208 208 208 210
171 178 176 174 170 173 178 179 182 184 186 186 183 186 188 193 199 203 211 211 210 213 216 217 217 216 219 221 217 218 227 225 225 233 232 233 232 221 223 219 205 213 222 222 237 245 252 258 250 263 250 226 241 233 211 212 194 180 154 175 217 289 235 268 285 271 278 285 289 256 232 215 211 218 220 218 215 210 208 208 209 210 210 210 210
174 173 174 179 169 167 172 175 179 178 177 179 178 182 188 192 199 204 209 211 211 214 214 212 212 215 218 219 220 222 223 220 219 226 223 224 230 218 212 216 209 209 217 223 234 241 259 265 252 285 301 292 289 251 236 334 187 157 132 144 164 188 225 187 211 256 265 272 294 259 223 212 212 212 215 216 217 215 212 211 211 210 211 212 212
182 171 173 179 170 166 170 170 173 172 169 175 175 179 189 192 195 200 202 204 206 209 207 205 207 210 212 214 218 215 211 211 213 216 215 217 229 224 209 205 208 214 218 230 239 241 262 285 280 280 298 316 329 314 324 2 157 144 124 121 151 168 180 162 173 238 294 280 215 202 128 207 211 209 214 217 218 219 218 214 213 212 211 213 214
187 183 171 166 165 163 168 169 171 172 170 175 178 178 186 191 194 197 197 198 200 203 201 204 208 205 210 217 214 207 202 207 210 210 210 212 225 226 214 202 205 217 223 233 241 245 259 290 300 290 308 315 324 329 337 352 12 121 123 121 132 146 144 148 162 167 299 306 175 167 86 251 224 214 216 216 217 219 221 218 214 214 215 215 216
176 188 128 124 170 167 159 161 168 173 171 176 179 179 185 190 194 194 197 201 200 201 201 205 209 205 210 212 201 195 196 204 205 206 207 210 223 225 217 207 204 213 220 229 237 249 253 263 288 295 323 322 310 316 327 334 355 82 102 106 104 109 123 140 176 256 291 313 360 318 295 282 249 232 229 225 222 216 216 219 215 213 216 217 217
151 184 94 93 166 174 155 148 166 170 167 172 176 181 186 189 196 194 193 202 203 204 204 205 208 207 208 200 191 192 195 200 202 204 203 204 218 222 214 210 208 213 218 229 236 247 250 253 279 291 311 313 307 313 328 325 342 68 73 87 97 104 126 140 171 296 314 320 324 294 282 287 261 235 236 231 230 223 215 217 216 214 216 219 219
146 194 104 83 134 171 165 150 163 164 161 172 177 184 190 190 198 197 192 198 200 202 205 207 208 207 207 199 193 194 195 197 198 200 202 200 208 218 217 213 212 217 222 230 238 241 251 270 280 281 284 289 299 313 329 329 353 49 47 67 70 53 139 128 157 235 324 324 278 258 263 269 255 238 238 229 231 238 229 218 216 216 217 221 222
177 200 207 119 130 165 175 162 160 168 169 176 182 190 195 194 198 201 197 195 196 198 201 204 206 206 209 201 192 190 194 197 196 198 201 200 204 214 218 212 212 222 226 229 240 245 248 263 271 275 282 287 300 310 332 344 38 69 58 60 36 18 159 48 359 332 323 330 285 252 254 250 240 237 236 231 234 243 240 226 220 218 217 221 226
209 204 212 210 183 169 181 176 165 172 176 180 188 196 201 200 200 204 203 197 194 197 201 201 203 204 203 197 190 189 194 196 195 197 199 201 203 209 215 212 213 222 228 231 239 245 246 253 258 261 269 283 296 298 331 336 97 112 99 101 34 33 151 42 2 345 314 303 295 271 260 249 243 236 231 236 237 237 239 233 226 222 220 220 224
213 205 202 209 202 188 188 190 180 175 178 184 195 203 205 208 209 208 207 205 199 199 204 205 206 208 200 194 193 192 195 196 197 198 199 202 203 207 212 214 214 215 223 229 233 240 240 241 243 250 266 289 299 301 324 323 302 125 114 132 125 167 153 57 344 328 313 295 281 282 284 254 245 239 229 243 244 235 235 232 229 228 226 221 221
212 208 205 205 202 197 194 195 191 186 187 188 196 207 211 211 214 213 205 206 207 205 208 207 205 210 202 194 195 196 196 198 199 200 202 203 204 208 212 217 218 213 219 227 228 232 235 241 245 249 263 259 275 302 313 308 321 97 130 157 152 171 151 112 322 299 309 306 273 286 309 243 235 251 239 245 245 232 232 231 227 226 225 222 221
218 214 215 213 208 207 204 200 194 191 197 195 195 207 214 213 210 208 202 205 209 206 209 208 201 205 207 200 196 196 198 200 203 203 204 206 206 208 211 216 221 217 220 226 228 232 233 240 244 242 249 240 235 287 305 295 310 38 131 184 206 191 168 154 164 222 305 317 255 262 297 239 227 250 238 243 244 233 235 233 225 223 223 223 225
220 217 219 218 212 212 211 208 201 195 201 201 197 205 214 214 209 206 206 207 209 208 210 212 206 202 206 206 198 196 201 202 206 208 207 209 209 210 211 214 221 222 222 226 230 235 233 236 245 244 256 259 194 236 273 279 289 287 184 175 194 201 191 170 167 193 313 339 212 249 289 281 256 255 238 243 247 239 237 232 225 223 221 221 223
213 214 216 216 213 213 214 216 211 204 205 203 198 204 212 214 208 206 212 211 212 212 211 218 219 207 206 210 203 199 203 205 208 211 210 211 211 211 214 215 220 224 226 228 230 233 235 240 248 247 257 275 248 240 256 266 281 278 224 165 157 182 224 225 201 175 130 307 284 256 271 263 256 264 256 243 240 234 230 230 225 221 221 220 218
206 213 216 217 216 215 217 218 215 211 209 204 199 206 215 219 210 205 213 216 216 215 210 216 224 219 214 214 212 205 203 204 209 213 212 212 213 213 215 217 220 225 228 232 233 232 236 240 243 241 246 253 244 238 243 246 257 265 253 231 195 180 205 216 194 177 156 209 272 276 242 229 240 256 251 238 234 231 226 228 227 220 223 226 221
201 211 214 215 216 217 219 220 216 213 214 208 201 206 216 222 218 209 211 215 218 218 210 209 217 228 226 218 220 221 209 202 207 215 215 214 215 215 216 219 220 224 228 231 235 238 240 239 239 239 235 236 236 234 235 237 245 253 253 239 220 199 212 200 185 190 181 185 228 259 257 244 251 257 249 237 234 235 231 231 230 221 222 230 227
231 228 219 215 217 218 217 218 216 213 217 216 207 205 210 218 222 217 212 210 210 214 213 207 208 224 232 220 220 231 225 209 206 214 216 215 217 217 217 221 222 225 229 233 237 241 243 239 234 234 231 230 232 232 233 237 239 244 249 239 234 230 214 199 217 223 209 200 224 254 255 249 259 266 265 248 234 235 237 235 231 223 226 234 229